Showing default

ION SCV-007, 55060

Orbit data source: Space-Track

ION SCV-007, 55060 is a payload satellite owned by D-ORBIT (IT) in SSO that was launched on Tue, 03 Jan 2023 UTC via an FALCON 9 launch vehicle from the Air Force Eastern Test Range (AFETR). Payload-class satellites include a variety of spacecraft equipped with specific instruments for various scientific and technological missions. These include communications satellites like Starlink; space stations such as the ISS; scientific satellites like the Hubble; Earth observation satellites from companies like Planet Labs, Umbra, and HawkEye 360; GPS; miniature CubeSats for education and research; and military/defense satellites.

Loading next visibility...
Identifier
55060, 2023-001BD
Orbit
SSO
Country
Flag of ITIT
Related business
Manufacturer
D-ORBIT
Mission
Operational Commercial Technology
Bus & Motor
ION-SC, PM200
Mass
220 kg wet, 150 kg dry
Launch date (UTC)
2023-01-03 (4 years ago)
Launch vehicle
FALCON 9
Launch site
Air Force Eastern Test Range (AFETR)
Object type
Payload
Rocket body
Debris
Shape & HBR
Box, 0.2 m
Radar Cross Section
0.240 m², Large (>1 m²)

Expand to show TLE details & history
Last TLE update: 1 day ago

TLE from 1 day ago
0 ION SCV-007
1 55060U 23001BD  26252.77914259  .00000256  00000-0  42840-4 0  9998
2 55060  97.8924 314.0813 0013599  65.5467 294.7161 14.77615276198742
Epoch: 2026-09-09T18:41Z
TLE epoch observation values (Epoch: 2026-09-09T18:41:57.919Z)
Latitude
-0°
Longitude
44.76366°
Altitude
635.901 km
Speed
7.542 km/s
True Right ascension
20h 56m 19s
True Declination
0° 00' 00"
Sunlit
Object was in full shadow at epoch
Visualization orbit readout
Latitude
Unknown
Longitude
Unknown
Altitude
Unknown
Speed
Unknown
Apparent Right ascension
Unknown
Apparent Declination
Unknown
Sunlit
N/A
Visualization observer readout
Local Sidereal Time
14:26:24
Azimuth
Unknown
Elevation
Unknown
Doppler factor
Unknown
Orbital elements
Apogee altitude
643.441 km
Perigee altitude
624.37 km
Semi-major axis
7,012.042 km
Eccentricity
0.00136
Inclination
97.8924°
RAAN
314.0813°
Arg. of periapsis
65.5467°
True anomaly
294.57444°
Mean anomaly
294.7161°
Eccentric anomaly
294.64528°
Mean motion
3.69638 °/min
Orbital period
97.39 mins
BSTAR
0.00004284
Loading maneuver chart data...
Computing Atmospheric mass density...

Documentation

Showing up to 5 results
|